www.pogodaiklimat.ru
ПОГОДА в Галаце

Архив погоды в Галаце (Румыния)

Время
(UTC), дата
07 11.08
08 11.08
09 11.08
10 11.08
11 11.08
12 11.08
13 11.08
14 11.08
15 11.08
16 11.08
17 11.08
18 11.08
19 11.08
20 11.08
21 11.08
22 11.08
23 11.08
00 12.08
01 12.08
02 12.08
03 12.08
04 12.08
05 12.08
06 12.08
07 12.08
08 12.08
09 12.08
10 12.08
11 12.08
12 12.08
13 12.08
14 12.08
15 12.08
16 12.08
17 12.08
18 12.08
19 12.08
20 12.08
21 12.08
22 12.08
23 12.08
00 13.08
01 13.08
02 13.08
03 13.08
04 13.08
05 13.08
06 13.08
07 13.08
08 13.08
09 13.08
10 13.08
11 13.08
12 13.08
13 13.08
14 13.08
15 13.08
16 13.08
17 13.08
18 13.08
19 13.08
20 13.08
21 13.08
22 13.08
23 13.08
00 14.08
01 14.08
02 14.08
03 14.08
04 14.08
05 14.08
06 14.08
07 14.08
08 14.08
09 14.08
10 14.08
11 14.08
12 14.08
13 14.08
14 14.08
15 14.08
16 14.08
17 14.08
18 14.08
19 14.08
20 14.08
21 14.08
22 14.08
23 14.08
00 15.08
01 15.08
02 15.08
03 15.08
04 15.08
05 15.08
06 15.08
07 15.08
08 15.08
09 15.08
10 15.08
11 15.08
12 15.08
13 15.08
14 15.08
15 15.08
16 15.08
17 15.08
18 15.08
19 15.08
20 15.08
21 15.08
22 15.08
23 15.08
00 16.08
01 16.08
02 16.08
03 16.08
04 16.08
05 16.08
06 16.08
07 16.08
09 16.08
10 16.08
11 16.08
12 16.08
13 16.08
14 16.08
15 16.08
16 16.08
17 16.08
18 16.08
19 16.08
20 16.08
21 16.08
22 16.08
23 16.08
00 17.08
01 17.08
02 17.08
03 17.08
04 17.08
05 17.08
06 17.08
07 17.08
08 17.08
09 17.08
10 17.08
11 17.08
12 17.08
13 17.08
14 17.08
15 17.08
16 17.08
17 17.08
18 17.08
19 17.08
20 17.08
21 17.08
22 17.08
23 17.08
00 18.08
01 18.08
02 18.08
03 18.08
04 18.08
05 18.08
06 18.08
07 18.08
Ветер
(напр.,м/с)
Видим. Явления Облачность Т
(С)
Тd
(С)
f
(%)
Тe
(С)
Тes
(С)
Комфортность P
(гПа)
Po
(гПа)
Тmin
(С)
Tmax
(С)
R
(мм)
R24
(мм)
S
(см)
С 5-10
{12}
20 км 4/0
[Ac trans]
+20.4 +13.8 66 +23 +26 комфорт 1015.8 1007.5
С 5-12
{12}
20 км 3/1 1000 м
[Cu hum Ac trans]
+22.1 +13.9 60 +25 +30 комфорт 1016.0 1007.8
С 4-10
{12}
20 км 3/1 1000 м
[Cu hum Ac trans]
+24.2 +14.3 54 +27 +35 жарко 1015.7 1007.5
С 4-9
{10}
20 км 3/1 1000 м
[Cu hum Ac trans]
+24.7 +14.4 53 +27 +36 жарко 1015.6 1007.4
С 3-9
{9}
20 км 3/1 1000 м
[Cu hum Ac trans]
+26.6 +14.4 47 +29 +39 жарко 1014.9 1006.8
С 4-9
{11}
20 км 3/1 1000 м
[Cu hum Ac trans]
+26.9 +13.4 43 +29 +36 жарко 1014.8 1006.7 0
С 4-8
{11}
20 км 1/1 1000 м
[Cu hum]
+28.5 +13.3 39 +30 +36 жарко 1014.6 1006.5
С 3-8
{11}
20 км 3/3 1000 м
[Cu hum]
+27.2 +13.6 43 +29 +33 жарко 1014.3 1006.2
С 4-9
{11}
20 км 3/3 1000 м
[Cu hum]
+27.9 +13.8 42 +30 +31 жарко 1014.2 1006.1
С 2-5
{9}
20 км 1/1 1000 м
[Cu hum]
+26.9 +14.6 47 +29 +30 жарко 1014.0 1005.9
С 2-6
{6}
20 км 1/1 600 м
[Sc diur, vesp]
+25.4 +14.2 50 +28 +28 жарко 1014.4 1006.2
С 2-4
{5}
20 км 3/1 600 м
[Sc diur, vesp Ac lent]
+24.2 +13.7 52 +26 +26 жарко 1014.8 1006.6 +18.4 +28.7 0
С 2-5
{6}
20 км 1/0
[Ac lent]
+23.6 +13.5 53 +26 +26 жарко 1015.2 1007.0
СЗ 3-5
{6}
20 км ясно +22.5 +13.4 56 +25 +25 комфорт 1015.5 1007.3
СЗ 3-6
{6}
20 км ясно +21.7 +13.5 60 +24 +24 комфорт 1015.5 1007.3
СЗ 3-5
{6}
20 км 1/0
[Ac trans]
+20.6 +13.1 62 +23 +23 комфорт 1015.7 1007.4
СЗ 2-5
{6}
20 км 1/0
[Ac trans]
+20.4 +14.2 68 +24 +24 комфорт 1015.8 1007.5
СЗ 2-4
{5}
20 км ясно +19.2 +14.0 72 +21 +21 комфорт 1015.8 1007.4 0
СЗ 4-7
{7}
20 км ясно +19.1 +14.3 74 +20 +20 1015.6 1007.2
СЗ 4-7
{7}
20 км ясно +19.1 +15.0 77 +20 +20 1015.5 1007.2
СЗ 4-7
{8}
20 км ясно +19.0 +15.6 81 +20 +20 1015.3 1007.0
СЗ 3-6
{6}
20 км 3/0
[Ac lent]
+18.6 +15.9 84 +20 +20 1015.2 1006.8
СЗ 5-8
{8}
20 км 1/0
[Ac lent]
+19.6 +16.2 81 +22 +23 комфорт 1015.1 1006.8
СЗ 5-9
{9}
20 км 4/4 600 м
[Sc]
+20.6 +16.7 78 +24 +26 комфорт 1015.5 1007.2 +18.6 +24.2 0
СЗ 5-9
{10}
20 км 5/5 600 м
[Sc]
+21.7 +16.7 73 +26 +28 душно 1015.3 1007.0
СЗ 4-9
{10}
20 км 3/3 600 м
[Cu Sc]
+23.8 +17.0 66 +28 +33 душно 1015.1 1006.9
СЗ 5-10
{10}
20 км 4/4 600 м
[Cu Sc]
+25.0 +17.5 63 +29 +34 душно 1014.8 1006.7
С 4-9
{9}
20 км 3/3 600 м
[Cu med, cong]
+26.5 +17.3 57 +31 +38 душно 1014.3 1006.2
СЗ 4-10
{10}
20 км 4/3 600 м
[Cu med, cong Ac trans]
+27.8 +16.8 51 +31 +38 душно 1014.0 1005.9
С 3-7
{10}
20 км 5/5 600 м
[Cu med, cong]
+27.6 +16.9 52 +31 +37 душно 1013.7 1005.6 0
С 3-8
{8}
20 км 5/4 600 м
[Cu med, cong Ci fib]
+29.0 +17.3 49 +33 +38 очень
душно
1013.4 1005.4
С 3-6
{8}
20 км 4/3 600 м
[Cu med, cong Ci fib]
+29.0 +17.5 50 +33 +37 очень
душно
1013.2 1005.1
С 2-5
{8}
20 км 4/3 600 м
[Cu med, cong Ci fib]
+27.2 +17.4 55 +31 +33 душно 1013.0 1004.9
С 3-7
{7}
20 км 4/1 600 м
[Cu med, cong Ci fib]
+27.5 +16.2 50 +31 +31 душно 1012.9 1004.8
С 4-9
{9}
20 км 3/0
[Ci fib]
+26.2 +16.6 56 +30 +30 душно 1013.1 1005.0
СЗ 4-8
{8}
20 км 3/0
[Ac trans Ci fib]
+25.1 +16.4 59 +29 +29 душно 1013.3 1005.2 +20.7 +29.5 0
С 4-9
{9}
20 км 3/0
[Ac trans]
+24.3 +17.4 65 +28 +28 душно 1013.4 1005.3
СЗ 3-7
{9}
20 км 1/0
[Ac trans]
+23.2 +17.4 70 +29 +29 душно 1013.4 1005.2
СЗ 4-7
{8}
20 км ясно +22.5 +17.5 73 +27 +27 душно 1013.1 1004.9
СЗ 2-5
{6}
20 км ясно +21.3 +17.5 79 +25 +25 комфорт 1013.0 1004.8
СЗ 4-7
{8}
20 км ясно +21.2 +17.7 80 +25 +25 комфорт 1012.8 1004.5
СЗ 4-7
{8}
20 км 4/0
[Ac trans]
+21.4 +17.9 80 +26 +26 душно 1012.3 1004.1 0
СЗ 3-6
{7}
20 км 8/0
[Ac As]
+21.1 +18.1 83 +25 +25 комфорт 1012.0 1003.7
СЗ 4-7
{7}
20 км 3/0
[Ac trans]
+20.7 +18.0 85 +25 +25 комфорт 1011.7 1003.4
СЗ 3-6
{7}
20 км 1/0
[Ac trans]
+20.5 +18.0 86 +24 +24 комфорт 1011.3 1003.0
С 3-6
{8}
10 км 8/8 300 м
[St]
+20.8 +18.2 85 +25 +25 комфорт 1011.4 1003.1
С 3-8
{9}
10 км 9/9 300 м
[St]
+21.4 +18.4 83 +26 +26 душно 1011.3 1003.1
С 3-8
{8}
10 км 4/4 300 м
[St]
+22.5 +18.5 78 +28 +31 душно 1011.2 1003.0 +20.5 +25.1 0
С 2-5
{7}
20 км 3/0
[Ac trans]
+24.1 +19.0 73 +29 +36 душно 1011.0 1002.9
С 2-6
{8}
20 км 9/3 600 м
[Cu med, cong Ac As]
+24.3 +19.0 72 +29 +33 душно 1010.9 1002.7
С 2-5
{7}
20 км 8/4 600 м
[Cu med, cong Ac As]
+26.4 +19.0 64 +32 +36 очень
душно
1010.4 1002.3
СВ 3-5
{5}
20 км 9/4 600 м
[Cu med, cong Ac As]
+27.0 +18.7 60 +32 +35 очень
душно
1009.8 1001.8
С 2-5
{6}
20 км 6/4 600 м
[Cu med, cong Ac trans]
+29.3 +19.2 55 +35 +42 очень
душно
1009.4 1001.4
С 2-5
{6}
20 км 5/4 600 м
[Cu med, cong Ac trans]
+30.4 +19.0 51 +36 +43 очень
душно
1009.1 1001.2 0
С 3-6
{7}
20 км 5/4 600 м
[Cu med, cong Ac trans]
+30.1 +19.0 51 +35 +40 очень
душно
1008.6 1000.6
С 3-7
{7}
20 км 6/5 600 м
[Cu med, cong Ac trans]
+30.2 +19.2 52 +36 +38 очень
душно
1008.3 1000.4
С 2-5
{7}
20 км 6/5 600 м
[Cu med, cong Ac trans]
+29.1 +19.3 56 +35 +36 очень
душно
1008.1 1000.1
СВ 2-4
{7}
20 км 8/5 600 м
[Cb calv Ac trans Ci fib]
+28.1 +18.6 56 +33 +33 очень
душно
1008.2 1000.2
С 2-5
{6}
20 км 9/3 600 м
[Cb calv Ac trans Cs]
+26.9 +18.9 62 +32 +32 очень
душно
1007.8 999.7
С 2-5
{7}
20 км 10/3 600 м
[Cb calv Ac As Cs]
+26.6 +18.6 62 +32 +32 очень
душно
1007.9 999.9 +22.5 +30.6 0
В 2-3
{5}
20 км 9/3 600 м
[Sc Ac As Cs]
+25.5 +19.6 70 +31 +31 очень
душно
1008.6 1000.5
СВ 1-2
{3}
20 км 9/3 600 м
[Sc Ac As Cs]
+25.3 +19.4 70 +31 +31 очень
душно
1008.7 1000.6
С 1-3
{4}
20 км 9/0
[Ac As Cs]
+25.1 +18.6 67 +30 +30 душно 1008.1 1000.0
С 1-3
{3}
20 км 5/0
[Ac trans Ci fib]
+23.7 +18.8 74 +28 +28 душно 1007.8 999.7
СВ 1-3
{3}
20 км 4/0
[Ac trans Ci fib]
+22.7 +19.4 82 +29 +29 очень
душно
1007.8 999.7
С 1-3
{4}
20 км ясно +22.5 +18.3 77 +28 +28 душно 1007.6 999.4 0
СЗ 3-4
{4}
20 км ясно +22.2 +17.8 76 +27 +27 душно 1007.3 999.1
С 2-4
{5}
20 км 3/0
[Ac trans]
+21.9 +17.8 78 +27 +27 душно 1007.2 999.0
С 2-5
{5}
20 км 4/3 600 м
[Cb cap Ac trans]
+20.4 +17.8 85 +24 +24 комфорт 1007.2 999.0
СВ 2-4
{5}
10 км 4/3 600 м
[Sc Ci ing]
+19.7 +18.0 90 +23 +23 комфорт 1007.4 999.1
СВ 2-5
{5}
10 км 4/3 600 м
[Cb calv Ci ing]
+21.1 +18.5 85 +25 +27 комфорт 1007.4 999.2
СВ 2-5
{5}
10 км 3/1 600 м
[Sc Ci ing]
+22.7 +19.0 80 +29 +33 очень
душно
1007.3 999.1 +19.7 +26.8 0
СВ 2-5
{6}
10 км 4/1 600 м
[Cu med, cong Cc]
+24.8 +19.4 72 +30 +37 душно 1007.1 999.0
СВ 2-5
{7}
20 км 4/3 600 м
[Cu med, cong Ac lent]
+26.3 +19.8 67 +32 +40 очень
душно
1006.8 998.8
СВ 3-6
{6}
20 км 4/4 600 м
[Cu med, cong]
+28.1 +19.0 58 +33 +41 очень
душно
1006.4 998.4
СВ 1-4
{5}
20 км 5/5 600 м
[Cu med, cong]
+30.3 +18.8 50 +35 +45 очень
душно
1005.9 997.9
В 2-4
{6}
20 км 4/4 600 м
[Cu med, cong]
+30.6 +17.7 46 +35 +44 очень
душно
1005.5 997.5
В 1-4
{5}
20 км 5/4 600 м
[Cu med, cong Ac cuf]
+30.3 +17.6 47 +35 +43 очень
душно
1004.8 996.8 0
В 2-4
{5}
20 км 5/3 600 м
[Cb calv Ac cuf Ci ing]
+31.0 +18.1 46 +35 +41 очень
душно
1004.3 996.4
С 4-9
{9}
20 км 5/4 600 м
[Cb cap Ci ing]
+28.4 +18.4 55 +33 +36 очень
душно
1004.7 996.7
С 2-5
{10}
20 км 6/3 600 м
[Cb cap Ac cuf Ci ing]
+26.4 +18.3 61 +31 +33 душно 1004.3 996.3
С 2-7
{7}
20 км 8/3 600 м
[Cb cap Ac cuf Cs]
+26.2 +19.1 65 +31 +32 очень
душно
1004.2 996.1
С 2-6
{6}
20 км 8/3 600 м
[Sc diur, vesp Ac trans Cs]
+24.3 +18.5 70 +29 +29 душно 1004.7 996.6
С 2-6
{8}
20 км 10/4 600 м
[Cb calv Ac trans Cs]
+22.4 +17.9 76 +27 +27 душно 1005.4 997.2 +22.4 +32.4 0
С 1-3
{6}
20 км 6/3 600 м
[Cb calv Ac cuf Ci fib]
+21.7 +18.0 79 +26 +26 душно 1005.4 997.2
СЗ 3-6
{6}
20 км 6/3 600 м
[Cb calv Ac cuf Ci fib]
+21.9 +17.5 76 +26 +26 душно 1005.6 997.4
С 3-7
{8}
20 км 5/1 600 м
[Sc diur, vesp Ac trans Ci fib]
+21.7 +16.7 73 +26 +26 душно 1005.9 997.7
С 2-5
{8}
20 км 3/0
[Ci fib]
+20.6 +17.1 80 +25 +25 комфорт 1005.6 997.4
С 2-4
{5}
10 км ясно +19.2 +18.2 94 +22 +22 комфорт 1005.3 997.1
С 3-6
{6}
10 км ясно +20.0 +18.3 90 +23 +23 комфорт 1004.9 996.7 0
СЗ 1-3
{5}
10 км ясно +19.9 +18.2 90 +24 +24 комфорт 1005.4 997.2
С 4-7
{7}
10 км 1/0
[Ci fib]
+20.2 +18.4 89 +24 +24 комфорт 1005.2 996.9
С 3-6
{6}
10 км 3/0
[Ci fib]
+20.2 +18.4 89 +24 +24 комфорт 1005.5 997.3
СЗ 3-6
{6}
10 км 4/0
[Ac trans Ci fib]
+20.0 +18.4 91 +23 +24 комфорт 1005.5 997.3
СЗ 3-5
{5}
10 км 9/1 600 м
[Cu med, cong Ac As Cs]
+19.9 +17.7 87 +23 +24 комфорт 1005.6 997.4
СЗ 2-5
{6}
10 км 9/3 600 м
[Sc Ac trans Cs]
+21.1 +17.9 82 +25 +27 комфорт 1005.7 997.5 +19.2 +22.4 0
СЗ 3-7
{7}
10 км 10/3 600 м
[Sc Ac trans Cs]
+22.9 +18.1 74 +28 +31 душно 1005.8 997.7
СЗ 4-6
{7}
20 км 8/4 600 м
[Cu Sc Ac trans Cc]
+23.7 +18.6 73 +28 +32 душно 1005.7 997.6
СВ 2-4
{6}
20 км 8/3 600 м
[Cu med, cong Ac trans Cc]
+26.4 +19.1 64 +32 +38 очень
душно
1005.5 997.5
СВ 2-5
{5}
20 км 9/4 600 м
[Cu med, cong Ac cuf Cs]
+27.9 +19.3 60 +34 +39 очень
душно
1005.2 997.2
СВ 3-5
{6}
20 км 9/4 600 м
[Cu med, cong Cs]
+27.2 +19.9 64 +33 +39 очень
душно
1005.6 997.5
СВ 3-6
{6}
20 км 9/3 600 м
[Cu med, cong Cs]
+27.5 +19.6 62 +33 +40 очень
душно
1005.2 997.2 0
СВ 2-5
{6}
20 км 9/4 600 м
[Cu med, cong Cs]
+28.5 +19.9 60 +35 +40 очень
душно
1005.3 997.3
СВ 2-5
{5}
20 км 9/4 600 м
[Cu med, cong Cs]
+28.9 +20.2 59 +35 +38 очень
душно
1005.0 997.0
СВ 2-5
{6}
20 км 9/4 600 м
[Cb cap Ac As Cs]
+27.2 +18.9 60 +32 +33 очень
душно
1005.1 997.0
ЮВ 1-4
{4}
20 км гроза без осадков 9/6 600 м
[Cb cap Cs]
+26.4 +18.9 63 +31 +32 душно 1006.1 998.1
ЮЗ 1-5
{8}
20 км гроза без осадков 10/5 600 м
[Cb cap Ac trans Cs]
+24.0 +17.4 67 +28 +28 душно 1006.0 997.9
ЮЗ 2-7
{8}
20 км гроза без осадков 10/6 600 м
[Cb cap Ac As]
+21.8 +19.0 84 +27 +27 душно 1006.8 998.6 +21.1 +29.2 0
Ю 2-5
{6}
20 км в посл. час гроза 10/5 600 м
[Cb cap Ac As]
+21.3 +17.9 81 +25 +25 комфорт 1006.4 998.2
Ю 2-5
{6}
10 км 8/3 600 м
[Cb calv Ac As]
+20.4 +18.1 87 +25 +25 комфорт 1007.0 998.7
Ю 3-6
{9}
10 км {гроза} 4/1 600 м
[Sc diur, vesp Ac trans]
+19.8 +18.1 90 +23 +23 комфорт 1007.0 998.7
Ю 2-6
{8}
10 км ясно +19.7 +17.7 88 +23 +23 комфорт 1007.2 999.0
Ю 3-7
{7}
10 км ясно +19.6 +17.8 89 +22 +22 комфорт 1007.3 999.0
Ю 3-6
{6}
10 км {гроза} 3/1 600 м
[Cb calv Ac trans]
+19.5 +17.9 90 +22 +22 комфорт 1007.3 999.0 0
Ю 2-6
{6}
20 км 1/0
[Ac trans]
+19.4 +17.7 90 +22 +22 комфорт 1007.2 998.9
Ю 2-6
{6}
10 км ясно +19.0 +17.5 91 +21 +21 комфорт 1007.2 999.0
Ю 2-5
{6}
10 км 3/0
[Ac lent]
+18.5 +17.4 93 +20 +20 1007.3 999.0
Ю 2-4
{6}
10 км 1/0
[Ac lent]
+18.6 +17.6 94 +20 +21 1007.4 999.1
Ю 2-6
{7}
10 км 1/0
[Ac lent]
+19.2 +17.8 92 +22 +24 комфорт 1007.3 999.0
Ю 2-6
{6}
10 км ясно +21.1 +18.2 84 +25 +30 комфорт 1007.3 999.1 +18.4 +21.8 0
Ю 2-6
{7}
20 км ясно +22.7 +18.5 77 +28 +37 душно 1007.3 999.2
Ю 4-8
{9}
20 км 1/0
[Ci fib]
+26.6 +19.0 63 +32 +41 очень
душно
1007.4 999.3
Ю 2-7
{8}
20 км 3/3 600 м
[Cu med, cong]
+28.7 +18.8 55 +34 +45 очень
душно
1007.0 999.1
Ю 3-7
{8}
20 км 4/4 600 м
[Cu med, cong]
+30.0 +18.9 51 +35 +43 очень
душно
1006.7 998.8
ЮЗ 2-6
{8}
20 км 5/5 600 м
[Cb calv]
+29.6 +17.4 48 +34 +40 очень
душно
1006.5 998.5 0
З 2-9
{9}
20 км 8/8 600 м
[Cb calv]
+26.8 +17.7 57 +31 +33 душно 1007.0 999.0
СВ 1-3
{12}
20 км гроза без осадков {ливн. дождь} 9/9 600 м
[Cb cap]
+23.5 +18.5 74 +28 +29 душно 1007.2 999.1 0.7
штиль 0-2
{4}
20 км в посл. час гроза {ливн. дождь} 8/4 600 м
[Cb cap Ac cuf Ci ing]
+25.5 +19.3 69 +31 +32 очень
душно
1007.7 999.6 0.7
штиль 0-2
{4}
20 км 8/3 600 м
[Cb cap Ac cuf Cs]
+27.2 +18.4 59 +32 +32 очень
душно
1007.2 999.2
В 1-3
{3}
20 км 8/0
[Ac cuf Cs]
+25.4 +18.9 67 +30 +30 душно 1007.4 999.3
ЮВ 1-2
{3}
н/о {гроза, ливн. дождь} н/о +24.1 +19.9 77 +29 +29 душно 1007.9 999.7 +20.8 +30.8
В 1-2
{5}
20 км 6/0
[Ac lent Ci fib]
+22.8 +19.4 81 +29 +29 очень
душно
1008.6 1000.4
В 1-3
{3}
20 км 1/0
[Ac lent]
+21.9 +19.4 86 +27 +27 душно 1008.3 1000.1
штиль 0-1
{3}
20 км ясно +21.3 +19.3 88 +26 +26 душно 1008.4 1000.2
З 1-3
{3}
20 км ясно +20.9 +19.2 90 +27 +27 душно 1008.5 1000.3
штиль 0-3
{3}
20 км ясно +20.8 +19.2 91 +25 +25 комфорт 1008.7 1000.5
В 1-3
{5}
20 км ясно +20.5 +18.7 89 +25 +25 комфорт 1008.4 1000.1 0
штиль 0-2
{3}
20 км ясно +20.2 +19.1 93 +24 +24 комфорт 1008.0 999.8
С 1-2
{2}
20 км ясно +19.9 +19.0 95 +24 +24 комфорт 1008.2 999.9
СВ 1-2
{3}
20 км 6/0
[Ac As]
+19.8 +19.0 95 +24 +24 комфорт 1008.0 999.8
штиль 0-1
{3}
20 км 9/0
[Ac As]
+20.5 +19.4 93 +24 +24 комфорт 1008.1 999.9
Ю 1-4
{4}
10 км 8/0
[Ac As Cc]
+20.8 +19.6 93 +26 +28 душно 1008.4 1000.2
ЮВ 1-2
{3}
10 км 8/0
[Ac As]
+22.3 +20.0 87 +28 +31 душно 1008.6 1000.4 +19.6 +24.4 0.7 0
Ю 3-6
{6}
20 км 8/0
[Ac As Ci fib]
+25.0 +18.5 67 +30 +34 душно 1008.7 1000.6
ЮЗ 2-5
{6}
20 км 8/0
[Ac As Cc]
+26.5 +17.8 59 +31 +37 душно 1008.9 1000.9
З 1-5
{5}
20 км 6/1 600 м
[Cu med, cong Ac trans Ci fib]
+28.7 +17.8 52 +33 +44 очень
душно
1008.6 1000.6
З 1-6
{7}
20 км 4/1 600 м
[Cu med, cong Ac lent Ci fib]
+29.3 +16.3 45 +32 +46 душно 1008.4 1000.4
З 2-5
{6}
20 км 5/3 600 м
[Cb cap Ac lent Ci fib]
+30.2 +16.0 42 +33 +42 душно 1008.3 1000.3
З 1-5
{5}
20 км 5/3 600 м
[Cu med, cong Ac lent Ci ing]
+32.0 +15.5 37 +34 +43 душно 1008.0 1000.0 0
З 1-4
{7}
20 км 5/4 600 м
[Cb calv Ci ing]
+32.2 +16.0 38 +35 +41 очень
душно
1007.5 999.6
З 2-6
{6}
20 км 8/5 600 м
[Cb calv Ac cuf Ci ing]
+31.8 +15.9 38 +34 +36 душно 1007.3 999.4
СЗ 5-10
{10}
20 км 9/8 600 м
[Cb calv Ac cuf]
+28.7 +17.7 51 +33 +33 очень
душно
1007.9 999.9
С 3-8
{8}
20 км 9/4 600 м
[Cb calv Ac cuf Cs]
+27.0 +17.6 56 +31 +31 душно 1008.3 1000.2
В 1-3
{5}
20 км 9/4 600 м
[Cb calv Ac cuf Cs]
+26.1 +18.7 64 +31 +31 очень
душно
1008.9 1000.9
СЗ 2-4
{4}
20 км 10/5 600 м
[Cb calv Ac As Cs]
+25.8 +18.8 65 +31 +31 очень
душно
1009.1 1001.0 +22.4 +32.6 0
С 1-3
{4}
20 км в посл. час ливневой дождь 9/4 600 м
[Cb calv Ac As Cs]
+24.0 +20.6 81 +30 +30 очень
душно
1009.8 1001.6 0.3
СВ 1-3
{6}
20 км 5/1 600 м
[Sc diur, vesp Ac cuf Ci fib]
+23.1 +19.9 82 +30 +30 очень
душно
1009.8 1001.7
З 1-2
{4}
20 км {ливн. дождь} 4/0
[Ac cuf Ci fib]
+23.0 +19.6 81 +30 +30 очень
душно
1010.2 1002.0 0.3
З 1-3
{3}
20 км 5/0
[Ac trans Ci fib]
+22.3 +19.2 83 +28 +28 душно 1010.1 1001.9
СЗ 2-3
{4}
20 км 5/0
[Ac trans Ci fib]
+22.2 +18.4 79 +27 +27 душно 1009.9 1001.7
СЗ 1-4
{4}
20 км {ливн. дождь} 3/0
[Ac trans Ci fib]
+21.4 +18.3 83 +26 +26 душно 1010.1 1001.9 0
СЗ 1-3
{4}
20 км 3/0
[Ac trans]
+21.2 +18.0 82 +25 +25 комфорт 1010.3 1002.0
СЗ 2-4
{5}
20 км ясно +21.1 +18.1 83 +25 +25 комфорт 1010.3 1002.1
СЗ 2-4
{4}
20 км ясно +20.7 +18.1 85 +25 +25 комфорт 1010.4 1002.2
СЗ 2-4
{5}
20 км 3/0
[Ac trans]
+20.8 +18.2 85 +26 +26 душно 1010.7 1002.5
З 1-4
{5}
20 км 3/0
[Ac trans]
+21.6 +18.4 82 +26 +28 душно 1010.9 1002.7
СЗ 2-5
{5}
20 км 3/0
[Ac trans]
+22.6 +18.4 77 +28 +32 душно 1010.8 1002.6 +20.7 +25.8 0.3 0
СЗ 3-6
{7}
20 км 3/1 1000 м
[Cu hum Ac trans]
+25.0 +18.4 67 +30 +35 душно 1011.0 1002.9
Местоположение метеостанции Галац (Румыния): широта 45.48 долгота 28.03 высота над уровнем моря 72 м.
В архиве по умолчанию представлена погода в Галаце за последнюю неделю. Архивные данные за месяц целиком и за предыдущие месяцы, начиная с января 2011 года, Вы можете получить, выбрав интересующий диапазон дат из раскрывающегося списка и нажав кнопку "Найти!".
*Определитесь, кто Вы:
Внимание! Время в таблицах - всемирное. Для получения местного времени необходимо прибавить поправку, которая равна 2 ч.
Смотрите также архив погоды в соседних городах и на ближайших метеорологических станциях:
Партнеры нашего сайта:      
Пояснения к столбцам:
  • Ветер - указаны скорость ветра в м/с - средняя за 10 мин, порывы в срок и между сроками (в фигурных скобках) и направление, откуда дует ветер: С - северный,
  • СВ - северо-восточный, В - восточный, ЮВ - юго-восточный, Ю - южный, ЮЗ - юго-западный, З - западный, СЗ - северо-западный.
  • Видимость - горизонтальная дальность видимости в метрах или километрах. При видимости от 1 до 10 км при отсутствии осадков обычно наблюдается дымка, при ухудшении видимости до 1 км и менее - туман. В сухую погоду видимость может ухудшаться дымом, пылью или мглою.
  • Явления - указаны атмосферные явления, наблюдавшиеся в срок или в последний час перед сроком; фигурными скобками обозначены явления, наблюдавшиеся между сроками (за 1-3 часа до срока); квадратными скобками обозначены град или гололедные отложения с указанием их диаметра в мм.
  • Облачность - указаны через наклонную черту общая и нижняя облачность в баллах и высота нижней границы облаков в метрах; квадратными скобками обозначены формы облаков: Ci - перистые, Cs - перисто-слоистые, Cc - перисто-кучевые, Ac - высококучевые, As - высокослоистые, Sc - слоисто-кучевые, Ns - слоисто-дождевые, Cu - кучевые, Cb - кучево-дождевые. Подробнее классификацию облаков см. в Атласе облаков (PDF).
  • T - Температура воздуха - температура, измеренная на высоте 2 м над землей.
  • Td - Температура точки росы - температура, при понижении до которой содержащийся в воздухе водяной пар достигнет насыщения.
  • f - Относительная влажность воздуха - влажноcть воздуха, измеренная на высоте 2 м над землей.
  • Te - Эффективная температура - температура, которую ощущает одетый по сезону человек в тени. Характеристика душности погоды. При расчете учитывается влияние влажности воздуха и скорости ветра на теплоощущения человека.
  • Tes - Эффективная температура на солнце - температура, которую ощущает человек, с поправкой на солнечный нагрев. Характеристика знойности погоды. Зависит от высоты солнца над горизонтом, облачности и скорости ветра. Ночью, в пасмурную погоду, а также при ветре 12 м/с и более поправка равна нулю.
  • P - Атмосферное давление - приведенное к уровню моря атмосферное давление.
  • Po - Атмосферное давление - измеренное на уровне метеостанции атмосферное давление.
  • Tmin - Минимальная температура - минимум температуры воздуха на высоте 2 м над землей.
  • Tmax - Максимальная температура - максимум температуры воздуха на высоте 2 м над землей.
  • R - Количество осадков - Количество выпавших осадков за период времени, мм. При наведении курсора мыши на число - период времени, за который выпало указанное количество осадков.
  • R24 - Количество осадков - Количество выпавших осадков за 24 часа, мм.
  • S - Снежный покров - Высота снежного покрова, см. При наведении курсора мыши на число - состояние снежного покрова и степень покрытия местности в баллах.